Weather History for KJER - October, 2012

Change the Weather History Date:

Monday, October 8, 2012

  Actual Average Record
Temperature  
Mean Temperature 48 °F 52 °F  
Max Temperature 65 °F 65 °F 88 °F (1953)
Min Temperature 30 °F 40 °F 25 °F (1968)
Degree Days  
Heating Degree Days 17 13  
Month to date heating degree days 114 95  
Since 1 July heating degree days 157 298  
Cooling Degree Days 0 0  
Month to date cooling degree days 0 0  
Year to date cooling degree days 750 509  
Moisture  
Dew Point 16 °F    
Average Humidity 38    
Maximum Humidity 63    
Minimum Humidity 13    
Precipitation  
Precipitation 0.00 in 0.02 in 0.29 in (1975)
Month to date precipitation 0.00 0.16  
Year to date precipitation 7.13 7.45  
Sea Level Pressure  
Sea Level Pressure 30.00 in    
Wind  
Wind Speed 6 mph (North)    
Max Wind Speed 15 mph    
Max Gust Speed 18 mph    
Visibility 9 miles    
Events      
T = Trace of Precipitation, MM = Missing Value Source: NWS Daily Summary

Daily Weather History Graph

Daily Weather History Graph

Search for Another Location

Airport or City:

Trip Planner

Search our weather history database for the weather conditions in past years. The results will help you decide how hot, cold, wet, or windy it might be!

Date:

Astronomy

Oct. 08, 2012 Rise Set
Actual Time 7:43 AM MDT 7:06 PM MDT
Civil Twilight 7:15 AM MDT 7:34 PM MDT
Nautical Twilight 6:42 AM MDT 8:06 PM MDT
Astronomical Twilight 6:09 AM MDT 8:39 PM MDT
Moon 12:18 AM MDT (10/8) 3:06 PM MDT (10/8)
Length of Visible Light 12h 19m
Length of Day
11h 22m
Last Quarter, 46% of the Moon is Illuminated
Oct 8
Last Quarter
Oct 15
New
Oct 21
First Quarter
Oct 29
Full
Nov 6
Last Quarter

Hourly Weather History & Observations

Time (MDT) Temp. Windchill Dew Point Humidity Pressure Visibility Wind Dir Wind Speed Gust Speed Precip Events Conditions
12:53 AM 43.0 °F - 16.0 °F 34% 30.04 in 10.0 mi Calm Calm - N/A   Clear
1:53 AM 45.0 °F - 14.0 °F 29% 30.03 in 10.0 mi Calm Calm - N/A   Clear
2:53 AM 37.0 °F - 15.1 °F 41% 30.04 in 10.0 mi Calm Calm - N/A   Clear
3:53 AM 34.0 °F - 19.0 °F 54% 30.03 in 10.0 mi Calm Calm - N/A   Clear
4:53 AM 32.0 °F 24.8 °F 18.0 °F 56% 30.02 in 10.0 mi NE 8.1 mph - N/A   Clear
5:53 AM 30.9 °F - 19.0 °F 61% 30.03 in 10.0 mi Calm Calm - N/A   Clear
6:53 AM 32.0 °F 27.5 °F 18.0 °F 56% 30.04 in 10.0 mi NNE 4.6 mph - N/A   Clear
7:53 AM 30.0 °F 25.2 °F 17.1 °F 59% 30.06 in 10.0 mi NNE 4.6 mph - N/A   Clear
8:48 AM 37.4 °F 29.8 °F 17.6 °F 45% 30.05 in 2.5 mi NNE 11.5 mph - N/A   Haze
8:53 AM 37.0 °F 28.1 °F 17.1 °F 44% 30.07 in 6.0 mi NNE 15.0 mph - N/A   Haze
9:09 AM 39.2 °F 32.5 °F 17.6 °F 42% 30.05 in 5.0 mi NE 10.4 mph - 0.00 in   Haze
9:53 AM 48.0 °F - 18.0 °F 30% 30.04 in 2.0 mi NE 6.9 mph - 0.00 in   Haze
10:00 AM 50.0 °F - 17.6 °F 28% 30.05 in 1.8 mi NNE 6.9 mph - N/A   Haze
10:08 AM 50.0 °F - 17.6 °F 28% 30.05 in 10.0 mi NNE 9.2 mph - N/A   Clear
10:53 AM 54.0 °F - 17.1 °F 23% 30.03 in 10.0 mi NE 5.8 mph - N/A   Clear
11:53 AM 55.0 °F - 16.0 °F 22% 30.02 in 10.0 mi Calm Calm - N/A   Clear
12:53 PM 57.9 °F - 17.1 °F 20% 29.99 in 10.0 mi Variable 3.5 mph - N/A   Clear
1:53 PM 62.1 °F - 16.0 °F 17% 29.95 in 10.0 mi Variable 3.5 mph - N/A   Clear
2:53 PM 64.0 °F - 18.0 °F 17% 29.94 in 10.0 mi SW 8.1 mph - N/A   Clear
3:53 PM 64.0 °F - 16.0 °F 16% 29.93 in 10.0 mi West 10.4 mph - N/A   Clear
4:53 PM 64.9 °F - 14.0 °F 14% 29.92 in 10.0 mi WSW 9.2 mph 17.3 mph N/A   Clear
5:53 PM 63.0 °F - 10.9 °F 13% 29.92 in 10.0 mi WSW 11.5 mph - N/A   Clear
6:53 PM 57.0 °F - 12.0 °F 17% 29.93 in 10.0 mi WSW 8.1 mph - N/A   Clear
7:53 PM 54.0 °F - 15.1 °F 22% 29.94 in 10.0 mi SW 9.2 mph - N/A   Clear
8:53 PM 51.1 °F - 15.1 °F 24% 29.94 in 10.0 mi SSW 8.1 mph - N/A   Clear
9:53 PM 48.0 °F - 18.0 °F 30% 29.93 in 10.0 mi South 6.9 mph - N/A   Clear
11:53 PM 46.9 °F - 14.0 °F 27% 29.94 in 10.0 mi Calm Calm - N/A   Clear